Weather History for NW Arkansas Airport, AR

Change the Weather History Date:

Thursday, February 21, 2013

  Actual Average Record
Temperature  
Mean Temperature 32 °F -  
Max Temperature 35 °F - - ()
Min Temperature 28 °F - - ()
Degree Days  
Heating Degree Days 34    
Moisture  
Dew Point 31 °F    
Average Humidity 95    
Maximum Humidity 100    
Minimum Humidity 82    
Precipitation  
Precipitation 0.46 in - - ()
Sea Level Pressure  
Sea Level Pressure 29.81 in    
Wind  
Wind Speed 12 mph (ESE)    
Max Wind Speed 23 mph    
Max Gust Speed 34 mph    
Visibility 6 miles    
Events Rain , Thunderstorm    
T = Trace of Precipitation, MM = Missing Value Source: NWS Daily Summary

Daily Weather History Graph

Daily Weather History Graph

Search for Another Location

Airport:

Trip Planner

Search our weather history database for the weather conditions in past years. The results will help you decide how hot, cold, wet, or windy it might be!

Date:

Astronomy

Feb. 21, 2013 Rise Set
Actual Time 6:57 AM CST 6:04 PM CST
Civil Twilight 6:31 AM CST 6:30 PM CST
Nautical Twilight 6:01 AM CST 7:00 PM CST
Astronomical Twilight 5:31 AM CST 7:30 PM CST
Moon 2:24 PM CST (2/21) 3:57 AM CST (2/21)
Length of Visible Light 11h 59m
Length of Day
11h 07m
Waxing Gibbous, 84% of the Moon is Illuminated
Feb 21
Waxing Gibbous
Feb 25
Full
Mar 4
Last Quarter
Mar 11
New
Mar 19
First Quarter

Hourly Weather History & Observations

Time (CST) Temp. Windchill Dew Point Humidity Pressure Visibility Wind Dir Wind Speed Gust Speed Precip Events Conditions
12:19 AM 30.2 °F 20.8 °F 26.6 °F 86% 30.04 in 8.0 mi East 11.5 mph - 0.00 in   Overcast
12:37 AM 30.2 °F 20.2 °F 26.6 °F 86% 30.02 in 10.0 mi East 12.7 mph - 0.01 in Rain Light Freezing Rain
12:53 AM 30.0 °F 19.5 °F 25.0 °F 82% 30.05 in 10.0 mi East 13.8 mph - 0.01 in Rain Light Freezing Rain
1:00 AM 28.4 °F 17.5 °F 24.8 °F 86% 30.01 in 10.0 mi East 13.8 mph - 0.00 in   Overcast
1:11 AM 30.2 °F 20.2 °F 26.6 °F 86% 30.00 in 10.0 mi East 12.7 mph - 0.00 in Rain Light Freezing Rain
1:36 AM 28.4 °F 18.0 °F 26.6 °F 93% 29.99 in 10.0 mi East 12.7 mph - 0.00 in   Overcast
1:50 AM 30.2 °F 19.3 °F 26.6 °F 86% 29.99 in 5.0 mi East 15.0 mph - 0.02 in Rain Light Freezing Rain
1:53 AM 30.0 °F 19.5 °F 27.0 °F 88% 30.02 in 5.0 mi East 13.8 mph - 0.02 in Rain Light Freezing Rain
2:53 AM 28.9 °F 18.2 °F 26.1 °F 89% 29.96 in 10.0 mi East 13.8 mph 23.0 mph 0.01 in Rain Light Freezing Rain
3:03 AM 28.4 °F 16.6 °F 26.6 °F 93% 29.93 in 10.0 mi East 16.1 mph 21.9 mph 0.00 in   Overcast
3:26 AM 28.4 °F 16.6 °F 26.6 °F 93% 29.89 in 9.0 mi East 16.1 mph 24.2 mph 0.01 in Rain Light Freezing Rain
4:29 AM 28.4 °F 16.6 °F 26.6 °F 93% 29.84 in 7.0 mi East 16.1 mph 24.2 mph 0.01 in Rain Light Freezing Rain
4:53 AM 28.9 °F 15.1 °F 26.1 °F 89% 29.83 in 10.0 mi East 23.0 mph 29.9 mph 0.01 in Rain Light Freezing Rain
5:04 AM 28.4 °F 16.2 °F 26.6 °F 93% 29.83 in 10.0 mi East 17.3 mph 29.9 mph 0.00 in   Overcast
5:11 AM 30.2 °F 18.5 °F 26.6 °F 86% 29.82 in 9.0 mi East 17.3 mph 24.2 mph 0.01 in Thunderstorm Overcast
5:27 AM 30.2 °F 17.8 °F 28.4 °F 93% 29.81 in 9.0 mi East 19.6 mph 25.3 mph 0.04 in   Overcast
5:53 AM 30.0 °F 17.5 °F 28.0 °F 92% 29.81 in 10.0 mi ESE 19.6 mph 31.1 mph 0.06 in Rain Light Freezing Rain
6:07 AM 30.2 °F 16.8 °F 28.4 °F 93% 29.76 in 10.0 mi ESE 23.0 mph 28.8 mph 0.00 in   Overcast
6:16 AM 30.2 °F 18.5 °F 28.4 °F 93% 29.75 in 10.0 mi ESE 17.3 mph 34.5 mph 0.00 in   Overcast
6:53 AM 30.9 °F 19.8 °F 28.0 °F 89% 29.79 in 10.0 mi ESE 16.1 mph 21.9 mph 0.00 in   Overcast
7:53 AM 32.0 °F 23.0 °F 28.9 °F 88% 29.75 in 10.0 mi East 11.5 mph 23.0 mph N/A   Overcast
8:53 AM 33.1 °F 26.1 °F 30.0 °F 89% 29.79 in 10.0 mi NNW 8.1 mph - 0.05 in   Overcast
9:16 AM 32.0 °F 24.8 °F 30.2 °F 93% 29.79 in 1.8 mi North 8.1 mph - 0.10 in   Overcast
9:32 AM 30.2 °F 21.9 °F 30.2 °F 100% 29.80 in 2.0 mi ENE 9.2 mph - 0.22 in Rain Light Freezing Rain
9:38 AM 32.0 °F 25.6 °F 30.2 °F 93% 29.79 in 3.0 mi NE 6.9 mph - 0.22 in Rain Light Freezing Rain
10:01 AM 32.0 °F 25.6 °F 30.2 °F 93% 29.81 in 3.0 mi ENE 6.9 mph - 0.25 in Rain Light Freezing Rain
10:25 AM 32.0 °F - 30.2 °F 93% 29.85 in 6.0 mi Calm Calm - 0.25 in Rain Light Freezing Rain
10:44 AM 32.0 °F 24.2 °F 30.2 °F 93% 29.80 in 1.8 mi East 9.2 mph - 0.27 in Rain Light Freezing Rain
10:49 AM 32.0 °F 22.5 °F 30.2 °F 93% 29.78 in 2.0 mi East 12.7 mph - 0.27 in Rain Light Freezing Rain
10:53 AM 32.0 °F 23.0 °F 30.9 °F 96% 29.81 in 2.5 mi East 11.5 mph - 0.27 in Rain Light Freezing Rain
11:06 AM 32.0 °F 25.6 °F 32.0 °F 100% 29.80 in 2.5 mi East 6.9 mph - 0.00 in Rain Light Freezing Rain
11:31 AM 32.0 °F 22.5 °F 32.0 °F 100% 29.72 in 1.5 mi ENE 12.7 mph - 0.00 in   Overcast
11:40 AM 32.0 °F 24.8 °F 32.0 °F 100% 29.81 in 2.0 mi ESE 8.1 mph - 0.01 in   Overcast
11:48 AM 32.0 °F 24.2 °F 32.0 °F 100% 29.78 in 3.0 mi East 9.2 mph - 0.01 in Rain Light Freezing Rain
11:53 AM 32.0 °F 24.2 °F 32.0 °F 100% 29.80 in 3.0 mi East 9.2 mph - 0.01 in Rain Light Freezing Rain
12:29 PM 32.0 °F 24.8 °F 32.0 °F 100% 29.74 in 2.0 mi East 8.1 mph - 0.01 in Rain Light Freezing Rain
12:53 PM 32.0 °F 23.0 °F 32.0 °F 100% 29.73 in 2.5 mi East 11.5 mph - 0.01 in Rain Light Freezing Rain
1:00 PM 32.0 °F 22.5 °F 32.0 °F 100% 29.71 in 3.0 mi East 12.7 mph - 0.00 in Rain Light Freezing Rain
1:53 PM 33.1 °F 24.9 °F 33.1 °F 100% 29.70 in 4.0 mi ESE 10.4 mph - 0.00 in Rain Light Freezing Rain
2:24 PM 33.8 °F 26.4 °F 33.8 °F 100% 29.67 in 10.0 mi ESE 9.2 mph - 0.00 in Rain Light Freezing Rain
2:53 PM 33.1 °F 26.1 °F 33.1 °F 100% 29.70 in 5.0 mi East 8.1 mph - 0.00 in Rain Light Freezing Rain
3:19 PM 33.8 °F 26.4 °F 33.8 °F 100% 29.67 in 2.0 mi ESE 9.2 mph - 0.00 in Rain Light Freezing Rain
3:31 PM 33.8 °F 26.4 °F 33.8 °F 100% 29.67 in 2.0 mi ESE 9.2 mph - 0.00 in Rain Light Freezing Rain
3:53 PM 33.1 °F 25.5 °F 33.1 °F 100% 29.71 in 3.0 mi ESE 9.2 mph - 0.00 in Rain Light Freezing Rain
4:01 PM 33.8 °F 27.0 °F 33.8 °F 100% 29.69 in 2.5 mi ESE 8.1 mph - 0.00 in   Overcast
4:11 PM 33.8 °F 27.0 °F 33.8 °F 100% 29.69 in 1.2 mi SE 8.1 mph - 0.01 in   Overcast
4:53 PM 34.0 °F 28.8 °F 34.0 °F 100% 29.74 in 1.2 mi South 5.8 mph - 0.01 in   Overcast
5:16 PM 35.6 °F 30.7 °F 35.6 °F 100% 29.72 in 3.0 mi South 5.8 mph - 0.00 in   Overcast
5:43 PM 35.6 °F 29.9 °F 35.6 °F 100% 29.73 in 2.5 mi South 6.9 mph - 0.00 in   Overcast
5:53 PM 35.1 °F 27.9 °F 35.1 °F 100% 29.75 in 3.0 mi SSW 9.2 mph - 0.00 in   Overcast
6:53 PM 34.0 °F 28.8 °F 34.0 °F 100% 29.78 in 5.0 mi SSW 5.8 mph - N/A   Overcast
7:40 PM 35.6 °F 30.7 °F 35.6 °F 100% 29.76 in 8.0 mi SSW 5.8 mph - N/A   Overcast
7:53 PM 35.1 °F 29.3 °F 35.1 °F 100% 29.78 in 10.0 mi SSW 6.9 mph - N/A   Overcast
8:53 PM 35.1 °F 27.9 °F 35.1 °F 100% 29.81 in 9.0 mi SW 9.2 mph - N/A   Overcast
9:53 PM 35.1 °F 26.4 °F 34.0 °F 96% 29.84 in 10.0 mi WSW 12.7 mph 24.2 mph N/A   Overcast
10:30 PM 33.8 °F 23.5 °F 33.8 °F 100% 29.83 in 10.0 mi West 16.1 mph 23.0 mph N/A   Overcast
10:53 PM 34.0 °F 23.4 °F 33.1 °F 96% 29.86 in 10.0 mi WSW 17.3 mph 21.9 mph N/A   Overcast
11:53 PM 34.0 °F 24.6 °F 32.0 °F 92% 29.87 in 10.0 mi West 13.8 mph - N/A   Overcast